Tracking 19286 objects as of 18-Nov-2018
HD Live streaming from Space Station
objects crossing your sky now

FLOCK 3P 75

Track FLOCK 3P 75 now!
10-day predictions
FLOCK 3P 75 is classified as:


NORAD ID: 41979
Int'l Code: 2017-008AH
Perigee: 492.6 km
Apogee: 504.3 km
Inclination: 97.4 °
Period: 94.4 minutes
Semi major axis: 6869 km
RCS: Unknown
Launch date: February 15, 2017
Source: United States (US)
Launch site: SRIHARIKOTA (SRI)
aabbcc
Your satellite tracking list
Your tracking list is empty




NASA's NSSDC Master Catalog

Two Line Element Set (TLE):
1 41979U 17008AH  18321.78672560  .00001330  00000-0  56465-4 0  9999
2 41979  97.4367  25.8833 0008564 164.1162 196.0346 15.24823370 97506
Source of the keplerian elements: AFSPC